Flag for Belgium Weather past 2 weeks in Mons, Belgium

Now
46 °F

Passing clouds.


Feels Like: 41 °F
Forecast: 34 / 53 °F
Wind: 13 mph from West

Location: Chievres

Current Time: Mar 27, 2015 at 12:02:27 PM

Latest Report: Mar 27, 2015 at 11:25 AM


Visibility: N/A

Pressure: 30.12 "Hg

Humidity: 71%

Dew point: 37 °F

Location of MonsLocation

Historic Weather in Mons — Graph

°F

Mons temperature yesterday

Maximum temperature yesterday: 45 °F (at 12:25 PM)
Minimum temperature yesterday: 32 °F (at 1:25 AM)
Average temperature yesterday: 38 °F

Past Weeks' High & Low Weather Summary

 TemperatureHumidityPressure
High61 °F (Mar 17, 2:25 PM)100% (Mar 17, 1:25 AM)30.42 "Hg (Mar 17, 1:25 AM)
Low28 °F (Mar 23, 4:25 AM)33% (Mar 12, 12:25 PM)29.68 "Hg (Mar 26, 1:50 PM)
Average42 °F81%30.13 "Hg
* Reported Mar 12 10:25 AM — Mar 27 10:25 AM, Mons, Weather by CustomWeather, © 2015

Note: Actual official high and low records may vary slightly from our data, if they occured in-between our weather recording intervals... More about our weather records

Advertising

Mons weather history for previous 24 hours

 ConditionsComfort  
Time TempWeatherWind HumidityBarometerVisibility
10:25 AM
Fri, Mar 27
45 °FPassing clouds.14 mph76%30.12 "HgN/A
9:25 AM45 °FQuite cool.10 mph76%30.09 "HgN/A
8:25 AM41 °FQuite cool.10 mph76%30.09 "HgN/A
7:25 AM37 °FChilly.7 mph81%30.07 "HgN/A
6:25 AM36 °FChilly.7 mph87%30.04 "HgN/A
5:25 AM37 °FChilly.8 mph81%30.01 "HgN/A
4:25 AM39 °FChilly.8 mph75%29.98 "HgN/A
3:25 AM39 °FChilly.9 mph75%29.95 "HgN/A
2:25 AM39 °FChilly.10 mph75%29.95 "HgN/A
12:25 AM41 °FQuite cool.12 mph76%29.89 "HgN/A
11:25 PM
Thu, Mar 26
41 °FQuite cool.7 mph81%29.86 "HgN/A
10:25 PM41 °FQuite cool.7 mph87%29.86 "HgN/A
9:25 PM41 °FQuite cool.6 mph87%29.83 "HgN/A
8:25 PM45 °FPassing clouds.6 mph93%29.80 "HgN/A
7:25 PM45 °FPartly cloudy.6 mph93%29.77 "HgN/A
6:25 PM45 °FDrizzle. Partly sunny.8 mph93%29.71 "HgN/A
5:25 PM43 °FMostly cloudy.16 mph93%29.71 "Hg3 mi
4:25 PM43 °FDrizzle. Partly sunny.20 mph93%29.71 "Hg2 mi
3:25 PM41 °FDrizzle. Broken clouds.20 mph93%29.71 "Hg3 mi
2:25 PM41 °FDrizzle. Broken clouds.21 mph93%29.68 "Hg5 mi
1:50 PM41 °FDrizzle. Mostly cloudy.21 mph93%29.68 "Hg3 mi
1:25 PM43 °FLight rain. Broken clouds.21 mph81%29.71 "Hg4 mi
12:25 PM45 °FDrizzle. Partly sunny.21 mph66%29.71 "HgN/A
Weather by CustomWeather, © 2015

See weather overviewHow to use our weather pages